LNI995 WAWW-WAAA

Flight info

Callsign LNI995
Flight time 0h 39m
Altitude 26000
Route LEKEX
Aircraft B739/M-SDE2E3FGHIRWXY/LB1

Departure

Time 2026-05-08 08:56
Airport Haluoleo Airport (WAWW)

Arrival

Time 2026-05-08 09:35
Airport Sultan Hasanuddin International Airport (WAAA)
Time Latitude Longitude Altitude Speed Heading
2026-05-08 08:36 -4.07789 122.41740 167 ft 0 kts 349°
2026-05-08 08:47 -4.07800 122.41742 167 ft 4 kts 349°
2026-05-08 08:47 -4.07825 122.41746 170 ft 2 kts 349°
2026-05-08 08:47 -4.07846 122.41755 167 ft 4 kts 305°
2026-05-08 08:47 -4.07852 122.41778 167 ft 4 kts 263°
2026-05-08 08:48 -4.07850 122.41791 167 ft 1 kts 259°
2026-05-08 08:48 -4.07850 122.41792 167 ft 0 kts 259°
2026-05-08 08:50 -4.07850 122.41788 167 ft 2 kts 259°
2026-05-08 08:51 -4.07858 122.41748 167 ft 10 kts 259°
2026-05-08 08:51 -4.07899 122.41689 167 ft 13 kts 187°
2026-05-08 08:51 -4.08010 122.41707 167 ft 19 kts 169°
2026-05-08 08:51 -4.08054 122.41715 167 ft 0 kts 171°
2026-05-08 08:52 -4.08055 122.41715 167 ft 1 kts 171°
2026-05-08 08:52 -4.08075 122.41719 167 ft 6 kts 171°
2026-05-08 08:52 -4.08140 122.41729 166 ft 13 kts 171°
2026-05-08 08:52 -4.08210 122.41672 167 ft 17 kts 257°
2026-05-08 08:53 -4.08231 122.41541 166 ft 22 kts 261°
2026-05-08 08:53 -4.08263 122.41379 166 ft 25 kts 253°
2026-05-08 08:53 -4.08293 122.41201 167 ft 27 kts 260°
2026-05-08 08:53 -4.08330 122.41008 168 ft 27 kts 259°
2026-05-08 08:54 -4.08377 122.40889 169 ft 10 kts 273°
2026-05-08 08:54 -4.08350 122.40882 169 ft 5 kts 65°
2026-05-08 08:54 -4.08344 122.40929 169 ft 9 kts 79°
2026-05-08 08:54 -4.08342 122.40942 169 ft 1 kts 79°
2026-05-08 08:55 -4.08326 122.41029 168 ft 41 kts 79°
2026-05-08 08:55 -4.08230 122.41559 166 ft 113 kts 80°
2026-05-08 08:55 -4.08054 122.42538 176 ft 169 kts 80°
2026-05-08 08:55 -4.07827 122.43747 689 ft 179 kts 79°
2026-05-08 08:56 -4.07567 122.44965 1481 ft 177 kts 77°
2026-05-08 08:56 -4.06881 122.45993 2102 ft 192 kts 36°
2026-05-08 08:56 -4.05489 122.46283 2301 ft 226 kts 352°
2026-05-08 08:56 -4.04008 122.45547 2487 ft 254 kts 319°
2026-05-08 08:57 -4.02945 122.44036 2708 ft 279 kts 296°
2026-05-08 08:57 -4.02107 122.42249 3025 ft 287 kts 295°
2026-05-08 08:57 -4.01538 122.41046 3040 ft 289 kts 296°
2026-05-08 08:57 -4.00642 122.39253 3612 ft 287 kts 297°
2026-05-08 08:58 -3.99719 122.37474 4442 ft 287 kts 298°
2026-05-08 08:58 -3.98917 122.35645 5195 ft 290 kts 281°
2026-05-08 08:58 -3.98923 122.33643 5880 ft 290 kts 253°
2026-05-08 08:58 -3.99736 122.31809 6589 ft 288 kts 237°
2026-05-08 08:59 -4.00805 122.30097 7242 ft 292 kts 234°
2026-05-08 08:59 -4.01924 122.28380 7903 ft 296 kts 234°
2026-05-08 08:59 -4.03059 122.26647 8595 ft 299 kts 234°
2026-05-08 08:59 -4.04202 122.24891 9261 ft 303 kts 235°
2026-05-08 09:00 -4.05354 122.23110 9918 ft 306 kts 235°
2026-05-08 09:00 -4.06520 122.21298 10393 ft 317 kts 235°
2026-05-08 09:00 -4.07751 122.19380 10527 ft 338 kts 235°
2026-05-08 09:00 -4.09057 122.17339 10695 ft 357 kts 235°
2026-05-08 09:01 -4.10412 122.15214 11067 ft 366 kts 236°
2026-05-08 09:01 -4.11785 122.13057 11618 ft 369 kts 236°
2026-05-08 09:01 -4.13165 122.10886 12217 ft 370 kts 236°
2026-05-08 09:01 -4.14552 122.08704 12769 ft 373 kts 236°
2026-05-08 09:02 -4.15953 122.06501 13302 ft 376 kts 236°
2026-05-08 09:02 -4.17365 122.04281 13822 ft 379 kts 236°
2026-05-08 09:02 -4.18786 122.02047 14301 ft 381 kts 236°
2026-05-08 09:02 -4.20214 121.99802 14786 ft 383 kts 236°
2026-05-08 09:03 -4.21650 121.97543 15260 ft 386 kts 236°
2026-05-08 09:03 -4.23096 121.95269 15734 ft 388 kts 236°
2026-05-08 09:03 -4.24549 121.92985 16186 ft 390 kts 236°
2026-05-08 09:03 -4.26015 121.90686 16633 ft 393 kts 236°
2026-05-08 09:04 -4.27584 121.88441 17073 ft 395 kts 232°
2026-05-08 09:04 -4.29254 121.86245 17512 ft 397 kts 231°
2026-05-08 09:04 -4.30964 121.84057 17937 ft 400 kts 231°
2026-05-08 09:04 -4.32684 121.81856 18313 ft 402 kts 231°
2026-05-08 09:05 -4.34405 121.79640 18681 ft 405 kts 231°
2026-05-08 09:05 -4.36128 121.77403 19055 ft 406 kts 231°
2026-05-08 09:05 -4.37852 121.75150 19422 ft 408 kts 232°
2026-05-08 09:05 -4.39579 121.72886 19777 ft 410 kts 232°
2026-05-08 09:06 -4.41313 121.70610 20132 ft 412 kts 232°
2026-05-08 09:06 -4.43051 121.68327 20480 ft 413 kts 232°
2026-05-08 09:06 -4.44797 121.66032 20826 ft 415 kts 232°
2026-05-08 09:06 -4.46527 121.63759 21149 ft 417 kts 232°
2026-05-08 09:07 -4.48289 121.61444 21476 ft 419 kts 232°
2026-05-08 09:07 -4.50082 121.59089 21799 ft 420 kts 232°
2026-05-08 09:07 -4.51857 121.56755 22113 ft 422 kts 232°
2026-05-08 09:07 -4.53643 121.54408 22428 ft 424 kts 232°
2026-05-08 09:08 -4.55434 121.52054 22722 ft 426 kts 233°
2026-05-08 09:08 -4.57231 121.49693 23017 ft 427 kts 233°
2026-05-08 09:08 -4.59014 121.47351 23290 ft 429 kts 232°
2026-05-08 09:08 -4.60829 121.44971 23552 ft 430 kts 232°
2026-05-08 09:09 -4.62648 121.42585 23761 ft 432 kts 232°
2026-05-08 09:09 -4.64480 121.40182 23973 ft 434 kts 232°
2026-05-08 09:09 -4.66314 121.37774 24185 ft 436 kts 232°
2026-05-08 09:09 -4.68162 121.35348 24393 ft 438 kts 233°
2026-05-08 09:10 -4.70016 121.32915 24609 ft 440 kts 233°
2026-05-08 09:10 -4.71877 121.30471 24806 ft 442 kts 233°
2026-05-08 09:10 -4.73740 121.28024 25076 ft 441 kts 233°
2026-05-08 09:10 -4.75599 121.25583 25366 ft 440 kts 233°
2026-05-08 09:11 -4.77460 121.23137 25578 ft 442 kts 233°
2026-05-08 09:11 -4.79331 121.20678 25759 ft 443 kts 233°
2026-05-08 09:11 -4.81201 121.18222 25841 ft 445 kts 233°
2026-05-08 09:11 -4.83084 121.15747 25847 ft 448 kts 233°
2026-05-08 09:12 -4.84982 121.13253 25855 ft 451 kts 233°
2026-05-08 09:12 -4.86892 121.10742 25856 ft 454 kts 233°
2026-05-08 09:12 -4.88805 121.08227 25851 ft 454 kts 233°
2026-05-08 09:12 -4.90726 121.05702 25850 ft 455 kts 233°
2026-05-08 09:13 -4.92644 121.03180 25847 ft 456 kts 233°
2026-05-08 09:13 -4.94566 121.00653 25844 ft 456 kts 233°
2026-05-08 09:13 -4.96489 120.98124 25846 ft 455 kts 233°
2026-05-08 09:13 -4.98404 120.95605 25846 ft 455 kts 233°
2026-05-08 09:14 -5.00297 120.93115 25846 ft 454 kts 233°
2026-05-08 09:14 -5.02208 120.90601 25844 ft 453 kts 233°
2026-05-08 09:14 -5.04114 120.88093 25847 ft 452 kts 233°
2026-05-08 09:14 -5.06018 120.85588 25846 ft 451 kts 233°
2026-05-08 09:15 -5.07916 120.83090 25847 ft 450 kts 233°
2026-05-08 09:15 -5.09809 120.80597 25845 ft 449 kts 233°
2026-05-08 09:15 -5.11691 120.78119 25831 ft 440 kts 233°
2026-05-08 09:15 -5.13516 120.75718 25826 ft 425 kts 233°
2026-05-08 09:16 -5.15155 120.73311 25828 ft 414 kts 244°
2026-05-08 09:16 -5.16074 120.70595 25846 ft 413 kts 262°
2026-05-08 09:16 -5.16290 120.67725 25717 ft 416 kts 268°
2026-05-08 09:16 -5.16365 120.64809 25313 ft 418 kts 269°
2026-05-08 09:17 -5.16414 120.61912 24863 ft 415 kts 269°
2026-05-08 09:17 -5.16470 120.59023 24404 ft 412 kts 269°
2026-05-08 09:17 -5.16541 120.56159 23936 ft 409 kts 268°
2026-05-08 09:17 -5.16623 120.53344 23435 ft 400 kts 268°
2026-05-08 09:18 -5.16710 120.50579 22894 ft 391 kts 268°
2026-05-08 09:18 -5.16798 120.47881 22409 ft 384 kts 268°
2026-05-08 09:18 -5.16885 120.45227 21953 ft 378 kts 268°
2026-05-08 09:18 -5.16970 120.42611 21506 ft 373 kts 268°
2026-05-08 09:19 -5.17054 120.40031 21069 ft 368 kts 268°
2026-05-08 09:19 -5.17136 120.37479 20645 ft 363 kts 268°
2026-05-08 09:19 -5.17217 120.34961 20210 ft 359 kts 268°
2026-05-08 09:19 -5.17297 120.32473 19800 ft 356 kts 268°
2026-05-08 09:20 -5.17378 120.29988 19278 ft 356 kts 268°
2026-05-08 09:20 -5.17457 120.27525 18931 ft 351 kts 268°
2026-05-08 09:20 -5.17535 120.25086 18530 ft 349 kts 268°
2026-05-08 09:20 -5.17613 120.22649 18103 ft 350 kts 268°
2026-05-08 09:21 -5.17691 120.20221 17639 ft 346 kts 268°
2026-05-08 09:21 -5.17768 120.17816 17207 ft 343 kts 268°
2026-05-08 09:22 -5.18223 120.03578 14748 ft 339 kts 268°
2026-05-08 09:23 -5.18302 120.01182 14361 ft 349 kts 268°
2026-05-08 09:23 -5.18384 119.98736 13929 ft 353 kts 268°
2026-05-08 09:23 -5.18466 119.96263 13485 ft 355 kts 268°
2026-05-08 09:23 -5.18548 119.93787 13046 ft 356 kts 268°
2026-05-08 09:24 -5.18629 119.91308 12621 ft 355 kts 268°
2026-05-08 09:24 -5.18711 119.88845 12195 ft 352 kts 268°
2026-05-08 09:24 -5.18791 119.86398 11767 ft 349 kts 268°
2026-05-08 09:24 -5.18871 119.83979 11489 ft 344 kts 268°
2026-05-08 09:25 -5.19135 119.81620 11108 ft 340 kts 251°
2026-05-08 09:25 -5.20155 119.79537 10812 ft 330 kts 231°
2026-05-08 09:25 -5.21636 119.77834 10577 ft 316 kts 226°
2026-05-08 09:25 -5.23078 119.76276 10336 ft 305 kts 225°
2026-05-08 09:26 -5.24542 119.74703 9950 ft 300 kts 225°
2026-05-08 09:26 -5.25922 119.73213 9616 ft 293 kts 225°
2026-05-08 09:26 -5.27306 119.71707 9309 ft 286 kts 226°
2026-05-08 09:26 -5.28642 119.70247 9017 ft 282 kts 226°
2026-05-08 09:27 -5.29966 119.68796 8741 ft 282 kts 226°
2026-05-08 09:27 -5.31301 119.67330 8467 ft 287 kts 226°
2026-05-08 09:27 -5.32637 119.65861 8197 ft 289 kts 226°
2026-05-08 09:27 -5.33988 119.64374 7907 ft 288 kts 225°
2026-05-08 09:28 -5.35339 119.62888 7639 ft 289 kts 225°
2026-05-08 09:28 -5.36665 119.61365 7325 ft 291 kts 234°
2026-05-08 09:28 -5.37400 119.59492 7037 ft 292 kts 263°
2026-05-08 09:28 -5.37222 119.57482 6705 ft 290 kts 289°
2026-05-08 09:29 -5.36373 119.55656 6390 ft 288 kts 300°
2026-05-08 09:29 -5.35383 119.53897 6020 ft 290 kts 301°
2026-05-08 09:29 -5.34391 119.52142 5670 ft 289 kts 301°
2026-05-08 09:29 -5.33412 119.50377 5325 ft 289 kts 300°
2026-05-08 09:30 -5.32456 119.48634 5029 ft 282 kts 300°
2026-05-08 09:30 -5.31519 119.46917 4662 ft 277 kts 300°
2026-05-08 09:30 -5.30427 119.45378 4305 ft 268 kts 322°
2026-05-08 09:30 -5.28817 119.44521 4012 ft 260 kts 349°
2026-05-08 09:31 -5.27046 119.44455 3731 ft 253 kts 14°
2026-05-08 09:31 -5.25460 119.45049 3520 ft 236 kts 27°
2026-05-08 09:31 -5.24043 119.45798 3239 ft 224 kts 31°
2026-05-08 09:31 -5.22727 119.46561 2968 ft 213 kts 32°
2026-05-08 09:32 -5.21474 119.47293 2681 ft 204 kts 32°
2026-05-08 09:32 -5.20259 119.48001 2417 ft 199 kts 31°
2026-05-08 09:32 -5.19080 119.48685 2171 ft 190 kts 31°
2026-05-08 09:32 -5.17993 119.49316 1979 ft 168 kts 31°
2026-05-08 09:33 -5.17027 119.49876 1741 ft 153 kts 30°
2026-05-08 09:33 -5.16101 119.50414 1552 ft 155 kts 30°
2026-05-08 09:33 -5.15170 119.50954 1358 ft 155 kts 30°
2026-05-08 09:33 -5.14239 119.51495 1162 ft 155 kts 29°
2026-05-08 09:34 -5.13299 119.52040 968 ft 157 kts 29°
2026-05-08 09:34 -5.12353 119.52590 770 ft 158 kts 29°
2026-05-08 09:34 -5.11397 119.53144 563 ft 158 kts 29°
2026-05-08 09:34 -5.10452 119.53693 356 ft 157 kts 29°
2026-05-08 09:35 -5.09517 119.54235 135 ft 153 kts 30°
2026-05-08 09:35 -5.08626 119.54757 42 ft 131 kts 29°
2026-05-08 09:35 -5.08023 119.55101 39 ft 69 kts 30°
2026-05-08 09:35 -5.07791 119.55234 41 ft 17 kts 26°
2026-05-08 09:36 -5.07693 119.55210 41 ft 16 kts 306°
2026-05-08 09:36 -5.07661 119.55120 40 ft 11 kts 245°
2026-05-08 09:36 -5.07723 119.55068 40 ft 12 kts 210°
2026-05-08 09:36 -5.07796 119.55026 40 ft 13 kts 210°
2026-05-08 09:37 -5.07878 119.54979 40 ft 14 kts 210°
2026-05-08 09:37 -5.07966 119.54929 40 ft 15 kts 209°
2026-05-08 09:37 -5.08049 119.54874 40 ft 15 kts 232°
2026-05-08 09:37 -5.08028 119.54777 39 ft 15 kts 299°
2026-05-08 09:38 -5.08010 119.54683 39 ft 14 kts 242°
2026-05-08 09:38 -5.08025 119.54669 40 ft 2 kts 216°
2026-05-08 09:38 -5.08043 119.54655 40 ft 6 kts 213°
2026-05-08 09:38 -5.08088 119.54651 40 ft 7 kts 123°
2026-05-08 09:39 -5.08113 119.54710 40 ft 4 kts 118°
2026-05-08 09:39 -5.08130 119.54740 40 ft 0 kts 119°